Regional Weather Roundup
Issued by NWS

Home | Current Version | Previous Version | Text Only | Print | Product List | Glossary Off
Versions: 1 2 3 4 5 6 7 8 9 10 11 12 13 14 15 16 17 18 19 20 21 22 23 24 25 26 27

000
ASUS45 KPSR 240010
RWRAZ

ARIZONA HOURLY REGIONAL WEATHER ROUNDUP
NATIONAL WEATHER SERVICE PHOENIX AZ
500 PM MST THU FEB 23 2017

NOTE: FAIR INDICATES FEW OR NO CLOUDS BELOW 12,000 FEET WITH NO
SIGNIFICANT WEATHER AND/OR OBSTRUCTIONS TO VISIBILITY.

AZZ001>003-036-240100-
NORTHWEST ARIZONA

CITY           SKY/WX    TMP DP  RH WIND       PRES   REMARKS
BULLHEAD CITY  SUNNY     63   7  11 N8        29.90R
KINGMAN        SUNNY     49 -18   5 W12       29.89S
6HR MIN TEMP:  46; 6HR MAX TEMP:  51;

$$

AZZ004>008-015-016-018-240100-
NORTH CENTRAL ARIZONA

CITY           SKY/WX    TMP DP  RH WIND       PRES   REMARKS
GRAND CANYON   MOSUNNY   34   4  28 W10G24    29.81R WCI  26
6HR MIN TEMP:  30; 6HR MAX TEMP:  36;

WILLIAMS       SUNNY     36   9  32 W14G22    29.83S WCI  27
PRESCOTT       MOSUNNY   43  20  39 W15G24    29.86R
6HR MIN TEMP:  41; 6HR MAX TEMP:  47;

FLAGSTAFF      CLOUDY    36  13  38 W21G29    29.81R WCI  25
6HR MIN TEMP:  31; 6HR MAX TEMP:  37;

PAYSON         MOSUNNY   45  21  39 SW12G17   29.89R
PAGE           MOSUNNY   45  -9  10 W15G26    29.79R
6HR MIN TEMP:  42; 6HR MAX TEMP:  47;

$$

AZZ009>014-017-240100-
NORTHEAST ARIZONA

CITY           SKY/WX    TMP DP  RH WIND       PRES   REMARKS
WINSLOW        SUNNY     46  16  30 W14       29.80R
6HR MIN TEMP:  42; 6HR MAX TEMP:  52;

SAINT JOHNS    SUNNY     48   6  18 W24G32    29.75R
6HR MIN TEMP:  44; 6HR MAX TEMP:  52;

WINDOW ROCK    CLOUDY    36  13  38 W13       29.77R WCI  27
6HR MIN TEMP:  36; 6HR MAX TEMP:  42;

SHOW LOW       SUNNY     39   9  28 SW20G29   29.81R WCI  30
$$

AZZ023-240100-
GREATER PHOENIX AREA

CITY           SKY/WX    TMP DP  RH WIND       PRES   REMARKS
PHOENIX        MOSUNNY   62  19  19 W21       29.89R
6HR MIN TEMP:  57; 6HR MAX TEMP:  63;

BUCKEYE        SUNNY     59  19  21 W15       29.92R
GLENDALE       MOSUNNY   63  21  20 SW12      29.91R
LUKE AFB       SUNNY     61  22  22 SW12      29.89R
6HR MIN TEMP:  58; 6HR MAX TEMP:  62;

DEER VALLEY    SUNNY     60  25  26 SW14G22   29.88R
6HR MIN TEMP:  54; 6HR MAX TEMP:  62;

SCOTTSDALE     SUNNY     60  21  22 W15       29.90R
6HR MIN TEMP:  55; 6HR MAX TEMP:  61;

MESA-FALCON    SUNNY    N/A N/A N/A W12G17    29.88R
MESA-GATEWAY   SUNNY     61  21  21 SW12G17   29.91R
CHANDLER       SUNNY     61  21  21 SW14      29.90R
$$

AZZ027-028-240100-
SOUTHWEST MARICOPA COUNTY AND PINAL COUNTY

CITY           SKY/WX    TMP DP  RH WIND       PRES   REMARKS
CASA GRANDE    NOT AVBL
GILA BEND      FAIR      63  17  17 W10         N/A
6HR MIN TEMP:  57; 6HR MAX TEMP:  64;

$$

AZZ503-504-507>509-240100-
SOUTHEAST ARIZONA

CITY           SKY/WX    TMP DP  RH WIND       PRES   REMARKS
TUCSON         SUNNY     63  10  12 W13G21    29.90R
6HR MIN TEMP:  57; 6HR MAX TEMP:  65;

DAVIS-MONTHAN  SUNNY     62  13  14 NW16G23   29.89R
6HR MIN TEMP:  55; 6HR MAX TEMP:  63;

NOGALES        SUNNY     61  14  16 W17G24    29.92R
SIERRA VISTA   SUNNY     58   4  11 W22G28    29.91R
6HR MIN TEMP:  58; 6HR MAX TEMP:  64;

DOUGLAS        SUNNY     65   3   8 W25G33    29.85R
6HR MIN TEMP:  63; 6HR MAX TEMP:  70;

SAFFORD        SUNNY     59  10  14 NW23G36   29.79R
6HR MIN TEMP:  58; 6HR MAX TEMP:  64;

$$

AZZ020-021-025-026-031-240100-
SOUTHWEST ARIZONA

CITY           SKY/WX    TMP DP  RH WIND       PRES   REMARKS
YUMA           SUNNY     65  26  23 N8        29.93S
6HR MIN TEMP:  61; 6HR MAX TEMP:  66;

$$

CAZ031-033-041-043-047-048-061-240100-
SOUTHERN CALIFORNIA

CITY           SKY/WX    TMP DP  RH WIND       PRES   REMARKS
DOWNTOWN L.A.  SUNNY     59  33  37 W12G23    30.02R
6HR MIN TEMP:  57; 6HR MAX TEMP:  62;

L.A. AIRPORT   MOSUNNY   57  35  43 W25       30.04S
6HR MIN TEMP:  55; 6HR MAX TEMP:  60;

SAN DIEGO      MOSUNNY   59  36  42 W13       30.08R
6HR MIN TEMP:  57; 6HR MAX TEMP:  61;

BURBANK        SUNNY     57  21  24 NW16G23   30.02R
6HR MIN TEMP:  52; 6HR MAX TEMP:  57;

ONTARIO        MOSUNNY   57  27  31 SW12      29.99S
6HR MIN TEMP:  51; 6HR MAX TEMP:  58;

RIVERSIDE      SUNNY     57  32  38 W16       30.00R
6HR MIN TEMP:  53; 6HR MAX TEMP:  59;

PALM SPRINGS   SUNNY     66  28  24 NW17G25   29.93S
6HR MIN TEMP:  60; 6HR MAX TEMP:  68;

EL CENTRO NAS  SUNNY     67  26  21 NE9       29.93F
6HR MIN TEMP:  61; 6HR MAX TEMP:  68;

IMPERIAL       SUNNY     67  30  25 N6        29.92S
6HR MIN TEMP:  62; 6HR MAX TEMP:  68;

BLYTHE         SUNNY     63  15  15 W9        29.93F
6HR MIN TEMP:  58; 6HR MAX TEMP:  64;

NEEDLES        SUNNY     63  16  16 W12       29.90S
6HR MIN TEMP:  59; 6HR MAX TEMP:  64;

$$

NVZ020-UTZ003-240100-
SOUTHERN NEVADA-UTAH

CITY           SKY/WX    TMP DP  RH WIND       PRES   REMARKS
LAS VEGAS      MOSUNNY   54   7  15 S3        29.89R
6HR MIN TEMP:  50; 6HR MAX TEMP:  56;

SALT LAKE CITY FLURRIES  31  23  72 NW9       29.85R WCI  23
6HR MIN TEMP:  29; 6HR MAX TEMP:  33; 6HR PCP: TRACE;

$$

NMZ009-TXZ055-240100-
NEW MEXICO-WEST TEXAS

CITY           SKY/WX    TMP DP  RH WIND       PRES   REMARKS
ALBUQUERQUE    MOSUNNY   52   5  15 W20G29    29.68R
6HR MIN TEMP:  51; 6HR MAX TEMP:  54;

EL PASO        MOSUNNY   70  12  10 W30G40    29.72R
6HR MIN TEMP:  69; 6HR MAX TEMP:  73;

$$


........................KEY........................
SKY/WX - SKY CONDITION/WEATHER
TMP    - TEMPERATURE IN FAHRENHEIT
DP     - DEW POINT IN FAHRENHEIT
RH     - RELATIVE HUMIDITY IN PERCENT
WIND   - DIRECTION AND SPEED IN MILES PER HOUR (MPH)
VRB    - VARIABLE WIND DIRECTION
PRES   - MEAN SEA LEVEL PRESSURE IN INCHES OF MERCURY
         F - FALLING PRESSURE   R - RISING PRESSURE
         S - STEADY PRESSURE
VSB    - VISIBILITY IN MILES
HX     - HEAT INDEX IN FAHRENHEIT
WCI    - WIND CHILL INDEX IN FAHRENHEIT
TC     - TEMPERATURE IN CELSIUS WHICH IS ALSO KNOWN AS
         TEMPERATURE IN CENTIGRADE
AFB    - AIR FORCE BASE
         LUKE AFB IS LUKE AIR FORCE BASE
         DAVIS-MONTHAN IS DAVIS-MONTHAN AIR FORCE BASE
NAS    - NAVAL AIR STATION
         EL CENTRO NAS IS EL CENTRO NAVAL AIR STATION
N/A    - NOT AVAILABLE





USA.gov is the U.S. government's official web portal to all federal, state and local government web resources and services.